Clear with few low clouds
Clear with few low clouds
Clear with few low clouds
Clear with few low clouds
Clear with few low clouds
Clear with few low clouds
Clear with few low clouds
Clear with few low clouds
Clear with few low clouds
(°C)
24°
24°
23°
23°
23°
23°
22°
22°
22°
22°
22°
22°
21°
21°
21°
21°
21°
21°
(°C)
22°
21°
20°
20°
20°
19°
19°
19°
19°
NNE
NNE
NNE
NNE
NNE
NNE
NNE
NNE
NNE
(km/h)
27-38
27-39
27-38
26-37
25-34
24-33
24-33
24-35
24-37
(mm)
0
0
0
0
0
0
0
0
0
(%)
0
0
0
0
0
0
0
0
0

Sun elevation

/ 46.4°
sun-icon
UV 10
06:56
20:56
Waxing gibbous moon (137°)
17:48
03:57

METAR for Caleta de Fuste (GCFV)

Time Conditions Temperature/
Dewpoint
Wind Visibility Weather Clouds Pressure Change Raw
VFR 24°C / 17°C 60º 17kt 9700m - Few Clouds 3000ft 1019 - GCFV 181600Z 06017KT 9999 FEW030 24/17 Q1019
VFR 24°C / 17°C 60º 17kt 9700m - Few Clouds 3000ft 1019 - GCFV 181530Z 06017KT 9999 FEW030 24/17 Q1019
VFR 24°C / 17°C 60º 16kt 9700m - Few Clouds 3000ft 1019 - GCFV 181500Z 06016KT 9999 FEW030 24/17 Q1019
VFR 24°C / 17°C 60º 16kt 9700m - Few Clouds 3000ft 1019 - GCFV 181430Z 06016KT 9999 FEW030 24/17 Q1019
VFR 24°C / 16°C 60º 16kt 9700m - Few Clouds 3000ft 1019 - GCFV 181400Z 06016KT 9999 FEW030 24/16 Q1019
VFR 24°C / 16°C 60º 16kt 9700m - Few Clouds 3000ft 1019 - GCFV 181330Z 06016KT 9999 FEW030 24/16 Q1019
VFR 23°C / 16°C 60º 16kt 9700m - Few Clouds 3000ft 1019 - GCFV 181300Z 06016KT 9999 FEW030 23/16 Q1019
VFR 24°C / 16°C 60º 15kt 9700m - Few Clouds 3000ft 1019 - GCFV 181230Z 06015KT 9999 FEW030 24/16 Q1019
VFR 23°C / 16°C 60º 15kt 9700m - Few Clouds 3000ft 1020 - GCFV 181200Z 06015KT 9999 FEW030 23/16 Q1020
VFR 23°C / 16°C 50º 15kt 9700m - Few Clouds 3000ft 1019 - GCFV 181130Z 05015KT 9999 FEW030 23/16 Q1019
VFR 24°C / 15°C 50º 14kt 9700m - Scattered Clouds 2500ft 1019 - GCFV 181100Z 05014KT 9999 SCT025 24/15 Q1019
MVFR 23°C / 15°C 40º 13kt 9700m - Broken Clouds 2500ft 1019 - GCFV 181030Z 04013KT 9999 BKN025 23/15 Q1019
MVFR 22°C / 14°C 40º 14kt 9700m - Broken Clouds 2500ft 1019 - GCFV 181000Z 04014KT 9999 BKN025 22/14 Q1019
MVFR 22°C / 15°C 40º 15kt 9700m - Broken Clouds 2500ft 1019 - GCFV 180930Z 04015KT 9999 BKN025 22/15 Q1019
MVFR 22°C / 15°C 40º 12kt 9700m - Broken Clouds 2500ft 1019 - GCFV 180900Z 04012KT 9999 BKN025 22/15 Q1019
MVFR 21°C / 14°C 30º 9kt 9700m - Broken Clouds 2500ft 1019 - GCFV 180830Z 03009KT 9999 BKN025 21/14 Q1019
MVFR 21°C / 14°C 40º 12kt 9700m - Broken Clouds 2500ft 1018 - GCFV 180800Z 04012KT 9999 BKN025 21/14 Q1018
MVFR 21°C / 14°C 20º 11kt 9700m - Broken Clouds 2500ft 1018 - GCFV 180730Z 02011KT 9999 BKN025 21/14 Q1018
MVFR 20°C / 14°C 20º variable 340º to 040º 13kt 9700m - Broken Clouds 2500ft 1018 - GCFV 180700Z 02013KT 340V040 9999 BKN025 20/14 Q1018
MVFR 20°C / 14°C 10º 12kt 9700m - Broken Clouds 2500ft 1017 - GCFV 180630Z 01012KT 9999 BKN025 20/14 Q1017
MVFR 20°C / 14°C 360º 13kt 9700m - Broken Clouds 2500ft 1017 - GCFV 180600Z 36013KT 9999 BKN025 20/14 Q1017
MVFR 20°C / 14°C 30º 13kt 9700m - Broken Clouds 2500ft 1017 - GCFV 180530Z 03013KT 9999 BKN025 20/14 Q1017
MVFR 20°C / 14°C 20º 11kt 9700m - Broken Clouds 2500ft 1016 - GCFV 180500Z 02011KT 9999 BKN025 20/14 Q1016
MVFR 20°C / 14°C 20º 13kt 9700m - Overcast 2400ft 1016 - GCFV 180430Z AUTO 02013KT 9999 OVC024 20/14 Q1016

VFR

24°C / 17°C

[More]
Wind 60º 17kt
Visibility 9700m
Weather -
Clouds Few Clouds 3000ft
Pressure 1019
Change -
Raw GCFV 181600Z 06017KT 9999 FEW030 24/17 Q1019

VFR

24°C / 17°C

[More]
Wind 60º 17kt
Visibility 9700m
Weather -
Clouds Few Clouds 3000ft
Pressure 1019
Change -
Raw GCFV 181530Z 06017KT 9999 FEW030 24/17 Q1019

VFR

24°C / 17°C

[More]
Wind 60º 16kt
Visibility 9700m
Weather -
Clouds Few Clouds 3000ft
Pressure 1019
Change -
Raw GCFV 181500Z 06016KT 9999 FEW030 24/17 Q1019

VFR

24°C / 17°C

[More]
Wind 60º 16kt
Visibility 9700m
Weather -
Clouds Few Clouds 3000ft
Pressure 1019
Change -
Raw GCFV 181430Z 06016KT 9999 FEW030 24/17 Q1019

VFR

24°C / 16°C

[More]
Wind 60º 16kt
Visibility 9700m
Weather -
Clouds Few Clouds 3000ft
Pressure 1019
Change -
Raw GCFV 181400Z 06016KT 9999 FEW030 24/16 Q1019

VFR

24°C / 16°C

[More]
Wind 60º 16kt
Visibility 9700m
Weather -
Clouds Few Clouds 3000ft
Pressure 1019
Change -
Raw GCFV 181330Z 06016KT 9999 FEW030 24/16 Q1019

VFR

23°C / 16°C

[More]
Wind 60º 16kt
Visibility 9700m
Weather -
Clouds Few Clouds 3000ft
Pressure 1019
Change -
Raw GCFV 181300Z 06016KT 9999 FEW030 23/16 Q1019

VFR

24°C / 16°C

[More]
Wind 60º 15kt
Visibility 9700m
Weather -
Clouds Few Clouds 3000ft
Pressure 1019
Change -
Raw GCFV 181230Z 06015KT 9999 FEW030 24/16 Q1019

VFR

23°C / 16°C

[More]
Wind 60º 15kt
Visibility 9700m
Weather -
Clouds Few Clouds 3000ft
Pressure 1020
Change -
Raw GCFV 181200Z 06015KT 9999 FEW030 23/16 Q1020

VFR

23°C / 16°C

[More]
Wind 50º 15kt
Visibility 9700m
Weather -
Clouds Few Clouds 3000ft
Pressure 1019
Change -
Raw GCFV 181130Z 05015KT 9999 FEW030 23/16 Q1019

VFR

24°C / 15°C

[More]
Wind 50º 14kt
Visibility 9700m
Weather -
Clouds Scattered Clouds 2500ft
Pressure 1019
Change -
Raw GCFV 181100Z 05014KT 9999 SCT025 24/15 Q1019

MVFR

23°C / 15°C

[More]
Wind 40º 13kt
Visibility 9700m
Weather -
Clouds Broken Clouds 2500ft
Pressure 1019
Change -
Raw GCFV 181030Z 04013KT 9999 BKN025 23/15 Q1019

MVFR

22°C / 14°C

[More]
Wind 40º 14kt
Visibility 9700m
Weather -
Clouds Broken Clouds 2500ft
Pressure 1019
Change -
Raw GCFV 181000Z 04014KT 9999 BKN025 22/14 Q1019

MVFR

22°C / 15°C

[More]
Wind 40º 15kt
Visibility 9700m
Weather -
Clouds Broken Clouds 2500ft
Pressure 1019
Change -
Raw GCFV 180930Z 04015KT 9999 BKN025 22/15 Q1019

MVFR

22°C / 15°C

[More]
Wind 40º 12kt
Visibility 9700m
Weather -
Clouds Broken Clouds 2500ft
Pressure 1019
Change -
Raw GCFV 180900Z 04012KT 9999 BKN025 22/15 Q1019

MVFR

21°C / 14°C

[More]
Wind 30º 9kt
Visibility 9700m
Weather -
Clouds Broken Clouds 2500ft
Pressure 1019
Change -
Raw GCFV 180830Z 03009KT 9999 BKN025 21/14 Q1019

MVFR

21°C / 14°C

[More]
Wind 40º 12kt
Visibility 9700m
Weather -
Clouds Broken Clouds 2500ft
Pressure 1018
Change -
Raw GCFV 180800Z 04012KT 9999 BKN025 21/14 Q1018

MVFR

21°C / 14°C

[More]
Wind 20º 11kt
Visibility 9700m
Weather -
Clouds Broken Clouds 2500ft
Pressure 1018
Change -
Raw GCFV 180730Z 02011KT 9999 BKN025 21/14 Q1018

MVFR

20°C / 14°C

[More]
Wind 20º variable 340º to 040º 13kt
Visibility 9700m
Weather -
Clouds Broken Clouds 2500ft
Pressure 1018
Change -
Raw GCFV 180700Z 02013KT 340V040 9999 BKN025 20/14 Q1018

MVFR

20°C / 14°C

[More]
Wind 10º 12kt
Visibility 9700m
Weather -
Clouds Broken Clouds 2500ft
Pressure 1017
Change -
Raw GCFV 180630Z 01012KT 9999 BKN025 20/14 Q1017

MVFR

20°C / 14°C

[More]
Wind 360º 13kt
Visibility 9700m
Weather -
Clouds Broken Clouds 2500ft
Pressure 1017
Change -
Raw GCFV 180600Z 36013KT 9999 BKN025 20/14 Q1017

MVFR

20°C / 14°C

[More]
Wind 30º 13kt
Visibility 9700m
Weather -
Clouds Broken Clouds 2500ft
Pressure 1017
Change -
Raw GCFV 180530Z 03013KT 9999 BKN025 20/14 Q1017

MVFR

20°C / 14°C

[More]
Wind 20º 11kt
Visibility 9700m
Weather -
Clouds Broken Clouds 2500ft
Pressure 1016
Change -
Raw GCFV 180500Z 02011KT 9999 BKN025 20/14 Q1016

MVFR

20°C / 14°C

[More]
Wind 20º 13kt
Visibility 9700m
Weather -
Clouds Overcast 2400ft
Pressure 1016
Change -
Raw GCFV 180430Z AUTO 02013KT 9999 OVC024 20/14 Q1016

TAF for Caleta de Fuste (GCFV)

From till


Maximum Temperature 25ºC on . Minimum Temperature 19ºC on .
From till Wind 50º 15kt. Visibility 9700m. Few Clouds 3000ft.
Becoming from till

Raw: TAF GCFV 181400Z 1815/1915 05015KT 9999 FEW030 TX25/1914Z TN19/1906Z BECMG 1819/1821 35012KT

Radar and precipitation nowcast for Caleta de Fuste

Drizzle
Light
Moderate
Heavy
Very Heavy
Hail

The location marker is placed on Caleta de Fuste. This animation shows the precipitation radar for the selected time range, as well as a 2h forecast. Orange crosses indicate lightning. Data provided by nowcast.de (available in USA, Europe, Australia). Drizzle or light snow fall might be invisible for the radar. Precipitation intensity is colour coded, ranging from turquoise to red.

Current satellite and rain images for Caleta de Fuste, Spain

The location marker is placed on Caleta de Fuste. [More]

The real-time satellite image combines visible light during daytime with infrared radiation during nighttime. At night, the image is not dark as infrared radiation can detect temperature differences. Unfortunately, low clouds and fog are difficult to distinguish from ground temperatures and thus can be almost invisible during the night. Meteosat satellite images for Europe are updated in real-time every 5 minutes. GOES-16/GOES-17 (North & South America) and Himawari (Asia) images update every 10 minutes.

Precipitation is estimated from radar and satellites. Precipitation estimates from satellites are less accurate at night than during daytime.

© 2024 meteoblue, NOAA Satellites GOES-16 and EUMETSAT. Lightning data provided by nowcast.

Back to top
×
Hey there,
seems like you are using an ad blocker.

Advertising is essential to maintain our free website with unique detail and accuracy.

Please whitelist www.meteoblue.com on your ad blocker or consider buying one of our products:

Already have a subscription?
Then please login.